TimeEST,TemperatureF,Dew PointF,Humidity,Sea Level PressureIn,VisibilityMPH,Wind Direction,Wind SpeedMPH,Gust SpeedMPH,PrecipitationIn,Events,Conditions,WindDirDegrees,DateUTC
12:58 AM,32.0,27.0,82,30.37,10.0,Calm,Calm,-,N/A,,Clear,0,2013-02-10 05:58:00
1:58 AM,32.0,27.0,82,30.39,10.0,Calm,Calm,-,N/A,,Clear,0,2013-02-10 06:58:00
2:58 AM,35.1,27.0,72,30.40,10.0,NNE,3.5,-,N/A,,Clear,20,2013-02-10 07:58:00
3:58 AM,33.1,27.0,78,30.41,10.0,NNE,3.5,-,N/A,,Clear,30,2013-02-10 08:58:00
4:58 AM,30.9,26.1,82,30.41,10.0,Calm,Calm,-,N/A,,Clear,0,2013-02-10 09:58:00
5:58 AM,34.0,27.0,75,30.41,10.0,NNE,3.5,-,N/A,,Unknown,30,2013-02-10 10:58:00
6:58 AM,33.1,28.0,82,30.43,10.0,NNE,3.5,-,N/A,,Clear,30,2013-02-10 11:58:00
7:58 AM,37.0,30.0,76,30.45,10.0,NNE,4.6,-,N/A,,Clear,30,2013-02-10 12:58:00
8:58 AM,43.0,33.1,68,30.47,10.0,NE,6.9,-,N/A,,Clear,40,2013-02-10 13:58:00
9:58 AM,46.0,34.0,63,30.48,10.0,NE,9.2,-,N/A,,Clear,40,2013-02-10 14:58:00
10:58 AM,48.9,34.0,56,30.48,10.0,NE,8.1,-,N/A,,Clear,50,2013-02-10 15:58:00
11:58 AM,48.0,30.9,52,30.48,10.0,Calm,Calm,-,N/A,,Clear,0,2013-02-10 16:58:00
12:58 PM,52.0,32.0,47,30.45,10.0,Variable,5.8,-,N/A,,Clear,0,2013-02-10 17:58:00
1:58 PM,53.1,35.1,50,30.43,10.0,East,5.8,-,N/A,,Clear,100,2013-02-10 18:58:00
2:58 PM,53.1,37.9,57,30.40,10.0,East,4.6,-,N/A,,Clear,90,2013-02-10 19:58:00
3:58 PM,54.0,39.9,59,30.40,10.0,East,4.6,-,N/A,,Clear,80,2013-02-10 20:58:00
4:58 PM,50.0,39.9,68,30.37,10.0,East,6.9,-,N/A,,Clear,90,2013-02-10 21:58:00
5:58 PM,46.9,39.9,77,30.37,10.0,ENE,5.8,-,N/A,,Clear,70,2013-02-10 22:58:00
6:58 PM,46.0,39.9,79,30.36,10.0,ENE,4.6,-,N/A,,Clear,60,2013-02-10 23:58:00
7:58 PM,46.0,41.0,83,30.35,10.0,ENE,5.8,-,N/A,,Clear,70,2013-02-11 00:58:00
8:58 PM,46.9,43.0,86,30.35,10.0,ENE,4.6,-,N/A,,Clear,60,2013-02-11 01:58:00
9:58 PM,48.0,45.0,89,30.32,10.0,ENE,3.5,-,N/A,,Mostly Cloudy,60,2013-02-11 02:58:00
10:58 PM,48.9,46.0,90,30.31,10.0,Calm,Calm,-,N/A,,Mostly Cloudy,0,2013-02-11 03:58:00
11:58 PM,50.0,46.0,86,30.33,10.0,NNE,3.5,-,N/A,,Overcast,20,2013-02-11 04:58:00